Preview of NWS' New Version of Forecast
This preview is not operational and should not be used for support decisions.

Regional Weather Roundup (RWR)

Issued by National Weather Service (NWS)

                            
000
ASUS43 KDTX 181501
RWRMI 
MICHIGAN HOURLY REGIONAL WEATHER ROUNDUP
NATIONAL WEATHER SERVICE DETROIT/PONTIAC MI
1100 AM EDT THU APR 18 2019

NOTE: "FAIR" INDICATES FEW OR NO CLOUDS BELOW 12,000 FEET WITH NO
SIGNIFICANT WEATHER AND/OR OBSTRUCTION TO VISIBILITY.

MIZ047>049-052>055-059>063-066>070-074>076-081>083-181600-
SOUTHEAST LOWER MICHIGAN
  
CITY           SKY/WX    TMP DP  RH WIND       PRES   REMARKS
ADRIAN         LGT RAIN  61  57  87 SW13G21   29.63R                  
ALMA           CLOUDY    64  61  91 S8        29.50F                  
ANN ARBOR      PTSUNNY   61  56  83 S15G23    29.61R                  
BAD AXE        RAIN      62  57  86 S9        29.53S                  
CARO           CLOUDY    61  58  91 S6        29.52F                  
DETROIT CITY   FAIR      63  52  67 S16       29.58F                  
DETROIT        CLOUDY    64  54  69 SW20      29.59F                  
FLINT          CLOUDY    63  56  78 S10       29.55S                  
GROSSE ILE     FAIR      54  49  83 S10       29.60S                  
HILLSDALE      CLOUDY    60  56  86 S14G22    29.62R                  
HOWELL         CLOUDY    64  55  75 SW13      29.57R                  

CITY           SKY/WX    TMP DP  RH WIND       PRES   REMARKS
JACKSON        CLOUDY    63  58  83 S13       29.59R                  
LAMBERTVILLE   FAIR      66  58  74 SW12G26   29.61R                  
LANSING        CLOUDY    63  59  87 S15G23    29.54S                  
LAPEER         CLOUDY    63  57  80 SW10      29.55F                  
MASON          CLOUDY    68  57  67 SW16G25   29.56R                  
MONROE         FAIR      65  62  90 S16G23    29.59S                  
PONTIAC        CLOUDY    61  56  83 S14       29.56S                  
PORT HOPE        N/A     65  57  75 SW8G17    29.50F                  
PORT HURON     RAIN      61  52  72 S10       29.58F                  
TRI CITIES     LGT RAIN  62  61  96 S13       29.50F                  
MIDLAND        LGT RAIN  63  59  88 S6        29.49F                  
TROY           CLOUDY    64  55  70 SW13G22   29.61R                  
SAGINAW HB     PTSUNNY   64  61  88 S10       29.50F                  
$$
MIZ043>046-050>051-056>058-064>065-071>073-077>080-181600-
SOUTHWEST LOWER MICHIGAN
  
CITY           SKY/WX    TMP DP  RH WIND       PRES   REMARKS
BATTLE CREEK   CLOUDY    65  59  81 S23G30    29.56R                  
BENTON HARBOR  RAIN      53  50  89 NW6       29.57S FOG              
BIG RAPIDS     DRIZZLE   55  53  95 CALM      29.50F                  
COLDWATER      LGT RAIN  63  61  93 SW13G21   29.61R                  
FREMONT        CLOUDY    52  51  97 W7        29.53R FOG              
HOLLAND        LGT RAIN  53  51  93 W9        29.55S FOG              
GRAND RAPIDS   LGT RAIN  56  53  90 W10       29.54R VSB 1            
IONIA          CLOUDY    62  59  91 S14       29.51R                  
KALAMAZOO      CLOUDY    63  58  83 SW14G24   29.57R                  
LUDINGTON      LGT RAIN  40  39  97 N6        29.55S                  
MARSHALL       CLOUDY    67  60  79 SW20G31   29.57R                  
MOUNT PLEASANT RAIN      59  59 100 CALM      29.49F                  
MUSKEGON       FOG       50  46  86 W6        29.55R VSB 1            
SOUTH HAVEN    RAIN      52  51  94 W6        29.57R                  
$$
MIZ016>042-181600-
NORTHERN LOWER MICHIGAN
  
CITY           SKY/WX    TMP DP  RH WIND       PRES   REMARKS
ALPENA         CLOUDY    60  53  77 W6        29.48S                  
BEAVER ISLAND  CLOUDY    39  39 100 SW5       29.53R FOG              
BELLAIRE       CLOUDY    44  41  90 CALM      29.53R                  
CADILLAC       RAIN      52  50  95 W6        29.49S VSB 1/2          
CHARLEVOIX     CLOUDY    40  39  95 W9        29.55R FOG     WCI  34  
FRANKFORT      CLOUDY    41  37  86 NW5       29.55R FOG              
GAYLORD        CLOUDY    44  43  96 W9        29.50R FOG              
GRAYLING       CLOUDY    50  50 100 NW7       29.49R FOG              
HARBOR SPRINGS FOG       39  38  96 W6        29.51R VSB 1/4 WCI  35  
HOUGHTON LAKE  CLOUDY    55  51  86 SW6       29.50R                  
MANISTEE       CLOUDY    38  37  97 NW7       29.56R WCI  33          
OSCODA         CLOUDY    60  55  84 SW10      29.49S                  
ROGERS CITY    CLOUDY    50  48  93 W5        29.50R FOG              
TRAVERSE CITY  CLOUDY    43  40  89 NW8       29.51R FOG              
$$
MIZ007>008-015-181600-
EASTERN UPPER MICHIGAN
  
CITY           SKY/WX    TMP DP  RH WIND       PRES   REMARKS
KINROSS        FOG       40  40 100 N5        29.49F VSB 1/4          
MACKINAC ISLAN FOG       38  38 100 CALM      29.50S VSB 1/4          
NEWBERRY       FOG       38  35  92 N6        29.50R VSB 1/4 WCI  33  
S. S. MARIE    CLOUDY    43  40  89 CALM      29.50R                  
MUNISING         N/A     35  33  92 N15       29.56R WCI  25          
$$
MIZ004>006-011>014-085-181600-
CENTRAL UPPER MICHIGAN
  
CITY           SKY/WX    TMP DP  RH WIND       PRES   REMARKS
MANISTIQUE     CLOUDY    39  34  80 NW7       29.53R HAZE    WCI  34  
ESCANABA       CLOUDY    38  36  92 NW10      29.57R WCI  31          
MENOMINEE      CLOUDY    39  37  92 N8        29.59R WCI  33          
SAWYER-GWINN   FOG       36  34  93 N16G23    29.57R VSB 1/4 WCI  26  
$$
MIZ001>003-009>011-084-181600-
WESTERN UPPER MICHIGAN
  
CITY           SKY/WX    TMP DP  RH WIND       PRES   REMARKS
IRON MOUNTAIN  CLOUDY    39  35  86 N12       29.58R WCI  32          
HOUGHTON       CLOUDY    38  34  85 N15       29.66R WCI  29          
COPPER HARBOR    N/A     36  34  92 NE13      29.66R WCI  27          
IRONWOOD       MIX PCPN  35  34  96 N7        29.73R WCI  29          
$$

ABBREVIATIONS USED IN REMARKS
   TC - TEMPERATURE IN CELSIUS
  WCI - WIND CHILL INDEX
   HX - HEAT INDEX
  VSB - VISIBILITY